Weather History for Franklin, VA

Change the Weather History Date:

Monday, March 11, 2013

  Actual Average (KSFQ) Record (KSFQ)
Temperature  
Mean Temperature 53 °F -  
Max Temperature 71 °F 60 °F 82 °F (1990)
Min Temperature 35 °F 36 °F 19 °F (1960)
Degree Days  
Heating Degree Days 12    
Growing Degree Days 3 (Base 50)    
Moisture  
Dew Point 45 °F    
Average Humidity 75    
Maximum Humidity 100    
Minimum Humidity 41    
Precipitation  
Precipitation 0.00 in - - ()
Sea Level Pressure  
Sea Level Pressure 30.14 in    
Wind  
Wind Speed 5 mph (SSE)    
Max Wind Speed 17 mph    
Max Gust Speed 22 mph    
Visibility 9 miles    
Events      
Averages and records for this station are not official NWS values.
T = Trace of Precipitation, MM = Missing Value Source: NWS Daily Summary

Daily Weather History Graph

Daily Weather History Graph

Search for Another Location

Airport:

Trip Planner

Search our weather history database for the weather conditions in past years. The results will help you decide how hot, cold, wet, or windy it might be!

Date:

Astronomy

Mar. 11, 2013 Rise Set
Actual Time 7:23 AM EDT 7:11 PM EDT
Civil Twilight 6:58 AM EDT 7:37 PM EDT
Nautical Twilight 6:28 AM EDT 8:07 PM EDT
Astronomical Twilight 5:58 AM EDT 8:37 PM EDT
Moon 6:57 AM EDT (3/11) 7:20 PM EDT (3/11)
Length of Visible Light 12h 39m
Length of Day
11h 47m
Waning Crescent, 0% of the Moon is Illuminated
Mar 11
Waning Crescent
Mar 11
New
Mar 19
First Quarter
Mar 27
Full
Apr 3
Last Quarter

Hourly Weather History & Observations

Time (EDT) Temp. Windchill Dew Point Humidity Pressure Visibility Wind Dir Wind Speed Gust Speed Precip Events Conditions
12:15 AM 44.6 °F - 42.8 °F 93% 30.28 in 10.0 mi Calm Calm - N/A   Clear
12:35 AM 42.8 °F - 42.8 °F 100% 30.28 in 10.0 mi Calm Calm - N/A   Clear
1:15 AM 39.2 °F - 39.2 °F 100% 30.28 in 10.0 mi Calm Calm - N/A   Clear
1:35 AM 39.2 °F - 39.2 °F 100% 30.27 in 10.0 mi Calm Calm - N/A   Clear
1:55 AM 39.2 °F - 39.2 °F 100% 30.27 in 7.0 mi Calm Calm - N/A   Clear
2:15 AM 39.2 °F - 39.2 °F 100% 30.27 in 7.0 mi Calm Calm - N/A   Clear
2:35 AM 39.2 °F - 39.2 °F 100% 30.27 in 7.0 mi Calm Calm - N/A   Clear
2:55 AM 41.0 °F 39.0 °F 41.0 °F 100% 30.26 in 7.0 mi SE 3.5 mph - N/A   Clear
3:15 AM 41.0 °F 39.0 °F 41.0 °F 100% 30.24 in 10.0 mi ESE 3.5 mph - N/A   Clear
3:35 AM 39.2 °F - 39.2 °F 100% 30.23 in 7.0 mi Calm Calm - N/A   Clear
3:55 AM 39.2 °F - 39.2 °F 100% 30.23 in 1.8 mi Calm Calm - N/A   Clear
4:15 AM 35.6 °F - 35.6 °F 100% 30.22 in 7.0 mi Calm Calm - N/A   Clear
4:35 AM 37.4 °F - 37.4 °F 100% 30.21 in 10.0 mi Calm Calm - N/A   Clear
4:55 AM 37.4 °F - 37.4 °F 100% 30.21 in 10.0 mi Calm Calm - N/A   Clear
5:15 AM 35.6 °F - 35.6 °F 100% 30.21 in 1.2 mi Calm Calm - N/A   Clear
5:35 AM 35.6 °F - 35.6 °F 100% 30.21 in 1.5 mi Calm Calm - N/A   Clear
5:55 AM 35.6 °F - 35.6 °F 100% 30.21 in 1.0 mi Calm Calm - N/A   Unknown
6:15 AM 35.6 °F - 35.6 °F 100% 30.21 in 5.0 mi Calm Calm - N/A   Clear
6:35 AM 35.6 °F - 35.6 °F 100% 30.21 in 7.0 mi Calm Calm - N/A   Clear
6:55 AM 35.6 °F - 35.6 °F 100% 30.20 in 10.0 mi Calm Calm - N/A   Clear
7:15 AM 35.6 °F - 35.6 °F 100% 30.20 in 10.0 mi Calm Calm - N/A   Clear
7:35 AM 35.6 °F - 35.6 °F 100% 30.19 in 5.0 mi Calm Calm - N/A   Clear
7:55 AM 37.4 °F - 37.4 °F 100% 30.21 in 7.0 mi Calm Calm - N/A   Clear
8:15 AM 39.2 °F - 39.2 °F 100% 30.22 in 7.0 mi Calm Calm - N/A   Clear
8:35 AM 44.6 °F 42.2 °F 44.6 °F 100% 30.22 in 10.0 mi SSE 4.6 mph - N/A   Clear
8:55 AM 46.4 °F 45.2 °F 46.4 °F 100% 30.22 in 10.0 mi SSE 3.5 mph - N/A   Clear
9:15 AM 48.2 °F - 48.2 °F 100% 30.22 in 10.0 mi SSE 4.6 mph - N/A   Clear
9:35 AM 51.8 °F - 50.0 °F 94% 30.20 in 10.0 mi SSE 5.8 mph - N/A   Clear
9:55 AM 53.6 °F - 50.0 °F 88% 30.20 in 10.0 mi SSE 8.1 mph - N/A   Clear
10:15 AM 55.4 °F - 50.0 °F 82% 30.20 in 10.0 mi SSE 6.9 mph - N/A   Clear
10:35 AM 57.2 °F - 51.8 °F 82% 30.19 in 10.0 mi SE 8.1 mph - N/A   Clear
10:55 AM 60.8 °F - 51.8 °F 72% 30.18 in 10.0 mi SSE 8.1 mph - N/A   Clear
11:15 AM 62.6 °F - 51.8 °F 68% 30.17 in 10.0 mi SSE 5.8 mph - N/A   Clear
11:35 AM 64.4 °F - 51.8 °F 64% 30.16 in 10.0 mi SSE 8.1 mph - N/A   Clear
11:55 AM 64.4 °F - 51.8 °F 64% 30.16 in 10.0 mi SSW 10.4 mph - N/A   Clear
12:15 PM 64.4 °F - 50.0 °F 59% 30.16 in 10.0 mi South 13.8 mph 19.6 mph N/A   Clear
12:35 PM 66.2 °F - 50.0 °F 56% 30.16 in 10.0 mi South 12.7 mph 20.7 mph N/A   Clear
12:55 PM 66.2 °F - 50.0 °F 56% 30.15 in 10.0 mi SSE 13.8 mph 17.3 mph N/A   Clear
1:15 PM 68.0 °F - 50.0 °F 52% 30.14 in 10.0 mi SSE 9.2 mph 16.1 mph N/A   Clear
1:35 PM 69.8 °F - 48.2 °F 46% 30.13 in 10.0 mi SW 10.4 mph 16.1 mph N/A   Scattered Clouds
1:55 PM 69.8 °F - 48.2 °F 46% 30.12 in 10.0 mi SSW 13.8 mph 18.4 mph N/A   Scattered Clouds
2:15 PM 71.6 °F - 48.2 °F 43% 30.10 in 10.0 mi SSW 9.2 mph 19.6 mph N/A   Scattered Clouds
2:35 PM 69.8 °F - 48.2 °F 46% 30.09 in 10.0 mi South 10.4 mph 18.4 mph N/A   Scattered Clouds
2:55 PM 69.8 °F - 48.2 °F 46% 30.09 in 10.0 mi South 10.4 mph 16.1 mph N/A   Mostly Cloudy
3:15 PM 69.8 °F - 50.0 °F 49% 30.08 in 10.0 mi South 11.5 mph 18.4 mph N/A   Mostly Cloudy
3:35 PM 69.8 °F - 48.2 °F 46% 30.08 in 10.0 mi South 12.7 mph 19.6 mph N/A   Scattered Clouds
3:55 PM 71.6 °F - 48.2 °F 43% 30.06 in 10.0 mi South 9.2 mph 19.6 mph N/A   Scattered Clouds
4:15 PM 69.8 °F - 46.4 °F 43% 30.05 in 10.0 mi South 12.7 mph 19.6 mph N/A   Scattered Clouds
4:35 PM 71.6 °F - 46.4 °F 41% 30.04 in 10.0 mi South 11.5 mph - N/A   Scattered Clouds
4:55 PM 71.6 °F - 46.4 °F 41% 30.03 in 10.0 mi SSE 15.0 mph 21.9 mph N/A   Scattered Clouds
5:15 PM 68.0 °F - 46.4 °F 46% 30.02 in 10.0 mi SSE 17.3 mph 21.9 mph N/A   Scattered Clouds
5:35 PM 68.0 °F - 48.2 °F 49% 30.03 in 10.0 mi South 13.8 mph 19.6 mph N/A   Mostly Cloudy
5:55 PM 68.0 °F - 48.2 °F 49% 30.03 in 10.0 mi SSE 12.7 mph 19.6 mph N/A   Scattered Clouds
6:15 PM 66.2 °F - 48.2 °F 52% 30.04 in 10.0 mi SSE 11.5 mph - N/A   Scattered Clouds
6:35 PM 66.2 °F - 48.2 °F 52% 30.04 in 10.0 mi South 12.7 mph 20.7 mph N/A   Clear
7:15 PM 64.4 °F - 48.2 °F 56% 30.04 in 10.0 mi SSE 9.2 mph - N/A   Clear
7:35 PM 64.4 °F - 48.2 °F 56% 30.03 in 10.0 mi SSE 13.8 mph 19.6 mph N/A   Clear
7:55 PM 62.6 °F - 48.2 °F 59% 30.03 in 10.0 mi SSE 13.8 mph 20.7 mph N/A   Clear
8:15 PM 62.6 °F - 48.2 °F 59% 30.01 in 10.0 mi SSE 16.1 mph 20.7 mph N/A   Clear
8:35 PM 62.6 °F - 50.0 °F 63% 30.01 in 10.0 mi SSE 11.5 mph 18.4 mph N/A   Clear
8:55 PM 62.6 °F - 50.0 °F 63% 30.02 in 10.0 mi SSE 15.0 mph - N/A   Clear
9:15 PM 62.6 °F - 50.0 °F 63% 30.02 in 10.0 mi SSE 12.7 mph - N/A   Clear
9:35 PM 62.6 °F - 50.0 °F 63% 30.03 in 10.0 mi SSE 13.8 mph 17.3 mph N/A   Clear
9:55 PM 60.8 °F - 50.0 °F 68% 30.02 in 10.0 mi SSE 10.4 mph - N/A   Clear
10:15 PM 60.8 °F - 50.0 °F 68% 30.04 in 10.0 mi South 11.5 mph 16.1 mph N/A   Scattered Clouds
10:35 PM 60.8 °F - 50.0 °F 68% 30.02 in 10.0 mi SSE 10.4 mph - N/A   Overcast
10:55 PM 60.8 °F - 50.0 °F 68% 30.02 in 10.0 mi SSE 12.7 mph - N/A   Overcast
11:15 PM 60.8 °F - 50.0 °F 68% 30.02 in 10.0 mi SSE 10.4 mph - N/A   Overcast
11:35 PM 60.8 °F - 50.0 °F 68% 30.01 in 10.0 mi SSE 8.1 mph - N/A   Overcast
11:55 PM 60.8 °F - 50.0 °F 68% 30.00 in 10.0 mi SSE 6.9 mph - N/A   Overcast